"startDT [UTC]","vpos","CH4 [ppm]","stdev(CH4) [ppm]","CO2 [ppm]","stdev(CO2) [ppm]","H2O_reported [%]","stdev(H2O_reported)","CavityPressure [torr]","CavityTemp [C]","OutletValve","CH4_dry [ppm]","CO2_dry [ppm]","DasTemp [C]","EtalonTemp [C]","WarmBoxTemp [C]","MPVPosition","T_ECpre [C]","T_EC1 [C]","T_EC2 [C]","p_inlet [hPa]","p_in [hPa]","p_out [hPa]","T_inlet [C]","RH_inlet [%]","dwpt_inlet [C]","T_vent [C]","RH_vent [%]","dwpt_vent [C]","flow_vent [l min-1]","flow_inlet [l min-1]","dwpt_sample [C]","T_room [C]"
2015-05-31 00:00:00,3.0,1.87821,0.01126,398.920,1.584,0.1563,0.2232,139.823,45.000,31256.15785,1.88324,399.926,33.247,45.068,45.000,0.00,0.09,-272.72,-272.78,-6,471,-5,23.8,16.0,-3.6,23.5,16.5,-3.4,5.73,1.95,-4.1,27.5
2015-05-31 00:01:00,3.0,1.87569,0.00036,397.009,0.052,0.0281,0.0015,139.994,45.000,30934.73434,1.87617,397.146,33.245,45.068,45.000,0.00,0.09,-272.72,-272.78,-6,471,-5,23.7,16.0,-3.6,23.4,16.4,-3.5,5.73,1.92,-4.1,27.5
2015-05-31 00:02:00,3.0,1.87592,0.00033,397.129,0.091,0.0268,0.0016,139.998,45.000,30878.06566,1.87638,397.251,33.237,45.068,45.000,0.00,0.09,-272.72,-272.78,-6,471,-5,23.8,16.0,-3.6,23.5,16.5,-3.4,5.73,1.92,-4.1,27.6
2015-05-31 00:03:00,3.0,1.87567,0.00048,397.389,0.056,0.0215,0.0020,139.995,45.000,30834.06157,1.87612,397.487,33.213,45.068,45.000,0.00,0.09,-272.72,-272.78,-6,471,-5,23.8,15.9,-3.6,23.5,16.4,-3.4,5.73,1.91,-4.1,27.6
2015-05-31 00:04:00,3.0,1.87574,0.00038,397.460,0.025,0.0178,0.0025,139.999,45.000,30800.21694,1.87605,397.546,33.204,45.068,45.000,0.00,0.10,-272.72,-272.78,-6,471,-5,23.8,16.0,-3.6,23.5,16.4,-3.5,5.73,1.91,-4.1,27.6
2015-05-31 00:05:00,3.0,1.87581,0.00027,397.494,0.025,0.0138,0.0011,139.998,45.000,30767.85049,1.87608,397.557,33.217,45.068,45.000,0.00,0.09,-272.72,-272.79,-6,471,-5,23.8,16.0,-3.5,23.5,16.5,-3.4,5.73,1.92,-4.1,27.6
2015-05-31 00:06:00,3.0,1.87596,0.00033,397.502,0.027,0.0110,0.0027,139.998,45.000,30742.88959,1.87612,397.554,33.208,45.068,45.000,0.00,0.09,-272.73,-272.79,-6,472,-5,23.8,15.9,-3.6,23.5,16.5,-3.4,5.73,1.91,-4.0,27.6
2015-05-31 00:07:00,3.0,1.87612,0.00037,397.538,0.041,0.0091,0.0017,139.999,45.000,30721.98228,1.87626,397.583,33.211,45.068,45.000,0.00,0.10,-272.71,-272.78,-6,472,-5,23.8,15.9,-3.7,23.5,16.4,-3.5,5.73,1.91,-4.0,27.6
2015-05-31 00:08:00,3.0,1.87595,0.00045,397.557,0.026,0.0077,0.0013,140.000,45.000,30704.74605,1.87614,397.593,33.196,45.068,45.000,0.00,0.10,-272.72,-272.78,-6,472,-5,23.8,15.6,-3.8,23.5,16.1,-3.7,5.73,1.92,-4.1,27.6
2015-05-31 00:09:00,3.0,1.87628,0.00025,397.555,0.028,0.0078,0.0030,140.001,45.000,30692.02532,1.87642,397.593,33.195,45.068,45.000,0.00,0.09,-272.73,-272.79,-6,472,-5,23.8,15.6,-3.9,23.5,16.0,-3.7,5.73,1.92,-4.0,27.6
2015-05-31 00:10:00,3.0,1.87601,0.00029,397.580,0.022,0.0056,0.0020,139.998,45.000,30680.04166,1.87613,397.606,33.195,45.068,45.000,0.00,0.09,-272.72,-272.78,-6,473,-5,23.8,15.5,-4.0,23.5,16.0,-3.7,5.73,1.91,-4.0,27.6
2015-05-31 00:11:00,3.0,1.87610,0.00037,397.563,0.044,0.0049,0.0024,139.996,45.000,30670.70929,1.87616,397.586,33.207,45.068,45.000,0.00,0.10,-272.72,-272.77,-6,473,-5,23.8,15.5,-4.0,23.5,16.0,-3.8,5.73,1.92,-4.0,27.6
2015-05-31 00:12:00,3.0,1.87621,0.00027,397.585,0.027,0.0057,0.0024,139.999,45.000,30662.83327,1.87635,397.614,33.195,45.068,45.000,0.00,0.09,-272.73,-272.78,-6,473,-5,23.8,15.7,-3.8,23.5,16.1,-3.7,5.73,1.92,-4.0,27.6
2015-05-31 00:13:00,3.0,1.87627,0.00031,397.587,0.023,0.0040,0.0020,140.000,45.000,30659.41632,1.87630,397.605,33.190,45.068,45.000,0.00,0.09,-272.73,-272.77,-6,474,-5,23.8,15.8,-3.7,23.5,16.2,-3.6,5.73,1.92,-4.0,27.6
2015-05-31 00:14:00,3.0,1.87629,0.00047,397.577,0.027,0.0041,0.0017,140.001,45.000,30654.66757,1.87634,397.595,33.211,45.068,45.000,0.00,0.10,-272.72,-272.77,-6,474,-5,23.8,15.8,-3.7,23.5,16.3,-3.5,5.73,1.92,-4.0,27.6
2015-05-31 00:15:00,3.0,1.87622,0.00021,397.579,0.031,0.0032,0.0012,140.001,45.000,30649.75726,1.87631,397.597,33.216,45.068,45.000,0.00,0.09,-272.73,-272.78,-6,474,-5,23.8,15.7,-3.8,23.5,16.1,-3.7,5.73,1.92,-4.0,27.7
2015-05-31 00:16:00,3.0,1.87618,0.00030,397.579,0.036,0.0023,0.0015,140.002,45.000,30647.46665,1.87624,397.589,33.224,45.068,45.000,0.00,0.09,-272.72,-272.78,-6,475,-5,23.8,15.6,-3.8,23.5,16.1,-3.7,5.73,1.92,-4.0,27.6
2015-05-31 00:17:00,3.0,1.87626,0.00037,397.590,0.034,0.0031,0.0016,140.000,45.000,30643.26745,1.87630,397.603,33.225,45.067,45.000,0.00,0.10,-272.71,-272.77,-6,475,-5,23.9,15.7,-3.7,23.5,16.1,-3.6,5.73,1.92,-4.0,27.7
2015-05-31 00:18:00,3.0,1.87623,0.00023,397.571,0.027,0.0022,0.0008,139.997,45.000,30641.07006,1.87627,397.583,33.220,45.067,45.000,0.00,0.09,-272.71,-272.78,-6,475,-5,23.9,15.9,-3.6,23.6,16.3,-3.5,5.73,1.91,-4.0,27.6
2015-05-31 00:19:00,3.0,1.87632,0.00033,397.594,0.033,0.0025,0.0018,139.999,45.000,30640.12128,1.87637,397.606,33.210,45.068,45.000,0.00,0.09,-272.72,-272.79,-6,476,-5,23.9,16.0,-3.5,23.6,16.4,-3.3,5.73,1.92,-4.0,27.6
2015-05-31 00:20:00,0.0,1.90525,0.00868,401.490,1.345,0.5175,0.2051,140.104,45.000,33716.43032,1.91298,403.797,33.218,45.068,45.000,0.00,0.09,-272.72,-272.78,-6,983,-5,23.9,16.1,-3.4,23.6,16.5,-3.3,5.73,1.98,-4.0,27.6
2015-05-31 00:21:00,0.0,1.90722,0.00015,401.962,0.028,0.6180,0.0019,140.001,45.000,33933.10964,1.91906,405.007,33.228,45.068,45.000,0.00,0.10,-272.72,-272.77,-7,984,-5,23.9,16.1,-3.4,23.6,16.6,-3.2,5.73,1.92,-4.0,27.6
2015-05-31 00:22:00,0.0,1.90675,0.00031,401.917,0.036,0.6217,0.0027,140.001,45.000,33993.02602,1.91866,404.979,33.220,45.068,45.000,0.00,0.10,-272.73,-272.78,-6,984,-5,23.9,16.1,-3.4,23.6,16.6,-3.2,5.73,1.93,-4.0,27.6
2015-05-31 00:23:00,0.0,1.90660,0.00023,401.914,0.039,0.6240,0.0020,140.004,45.000,34041.83873,1.91852,404.987,33.233,45.068,45.000,0.00,0.10,-272.73,-272.78,-7,985,-5,23.9,16.1,-3.4,23.6,16.6,-3.2,5.73,1.93,-4.0,27.6
2015-05-31 00:24:00,0.0,1.90638,0.00028,401.900,0.034,0.6247,0.0020,140.003,45.000,34078.45684,1.91835,404.981,33.243,45.068,45.000,0.00,0.10,-272.72,-272.78,-6,984,-5,23.9,16.1,-3.4,23.6,16.6,-3.2,5.73,1.94,-4.0,27.7
2015-05-31 00:25:00,0.0,1.90657,0.00022,401.905,0.035,0.6249,0.0018,140.000,45.000,34110.24943,1.91848,404.983,33.246,45.068,45.000,0.00,0.09,-272.72,-272.78,-7,984,-5,23.9,16.0,-3.4,23.6,16.5,-3.3,5.73,1.94,-4.0,27.7
2015-05-31 00:26:00,0.0,1.90657,0.00030,401.897,0.020,0.6264,0.0021,140.000,45.000,34134.84903,1.91859,404.983,33.245,45.068,45.000,0.00,0.09,-272.72,-272.78,-6,984,-5,23.9,16.1,-3.4,23.6,16.5,-3.3,5.73,1.95,-4.0,27.7
2015-05-31 00:27:00,0.0,1.90640,0.00027,401.897,0.030,0.6231,0.0015,140.001,45.000,34160.42914,1.91831,404.966,33.230,45.068,45.000,0.00,0.10,-272.71,-272.77,-6,985,-5,23.9,16.0,-3.5,23.6,16.4,-3.4,5.73,1.94,-4.0,27.7
2015-05-31 00:28:00,0.0,1.90673,0.00019,401.902,0.041,0.6249,0.0019,140.001,45.000,34177.28591,1.91867,404.982,33.219,45.068,45.000,0.00,0.09,-272.72,-272.77,-6,984,-5,23.9,16.1,-3.4,23.6,16.5,-3.3,5.73,1.96,-4.0,27.7
2015-05-31 00:29:00,0.0,1.90674,0.00044,401.886,0.022,0.6284,0.0019,139.998,45.000,34192.47516,1.91873,404.983,33.226,45.068,45.000,0.00,0.09,-272.72,-272.78,-6,985,-5,23.9,16.1,-3.3,23.6,16.6,-3.2,5.73,1.95,-4.0,27.7
2015-05-31 00:30:00,0.0,1.90654,0.00052,401.855,0.038,0.6307,0.0021,140.001,45.000,34208.57757,1.91864,404.964,33.222,45.068,45.000,0.00,0.09,-272.72,-272.78,-7,984,-5,23.9,16.2,-3.3,23.6,16.6,-3.2,5.73,1.95,-4.0,27.7
2015-05-31 00:31:00,0.0,1.90621,0.00031,401.835,0.025,0.6358,0.0022,139.998,45.000,34216.97852,1.91836,404.967,33.236,45.068,45.000,0.00,0.10,-272.72,-272.78,-7,985,-5,23.9,16.3,-3.2,23.6,16.7,-3.1,5.73,1.96,-4.0,27.6
2015-05-31 00:32:00,0.0,1.90640,0.00031,401.834,0.019,0.6427,0.0025,140.000,45.000,34225.32998,1.91872,405.002,33.233,45.068,45.000,0.00,0.09,-272.72,-272.78,-7,984,-5,23.9,16.5,-3.1,23.6,16.9,-2.9,5.73,1.95,-4.0,27.6
2015-05-31 00:33:00,0.0,1.90606,0.00024,401.810,0.042,0.6414,0.0020,140.001,45.000,34235.68676,1.91832,404.972,33.246,45.068,45.000,0.00,0.09,-272.72,-272.79,-6,984,-5,23.9,16.5,-3.0,23.6,16.9,-2.9,5.73,1.95,-4.0,27.6
2015-05-31 00:34:00,0.0,1.90600,0.00037,401.767,0.023,0.6435,0.0024,140.000,45.000,34243.98914,1.91830,404.939,33.249,45.068,45.000,0.00,0.10,-272.71,-272.78,-7,985,-5,23.9,16.5,-3.0,23.6,17.0,-2.9,5.73,1.95,-4.0,27.7
2015-05-31 00:35:00,0.0,1.90598,0.00035,401.762,0.040,0.6445,0.0026,140.000,45.000,34248.73819,1.91834,404.939,33.250,45.068,45.000,0.00,0.10,-272.72,-272.78,-6,985,-5,23.9,16.6,-3.0,23.6,17.0,-2.9,5.73,1.94,-4.0,27.7
2015-05-31 00:36:00,0.0,1.90605,0.00037,401.778,0.026,0.6431,0.0022,140.000,45.000,34254.86037,1.91834,404.948,33.250,45.068,45.000,0.00,0.09,-272.72,-272.78,-7,985,-5,23.9,16.5,-3.0,23.6,17.1,-2.8,5.73,1.94,-4.0,27.7
2015-05-31 00:37:00,0.0,1.90631,0.00038,401.781,0.028,0.6431,0.0016,140.003,45.000,34259.86407,1.91858,404.950,33.250,45.068,45.000,0.00,0.10,-272.72,-272.78,-6,984,-5,23.9,16.5,-3.1,23.7,17.0,-2.9,5.73,1.94,-4.0,27.7
2015-05-31 00:38:00,0.0,1.90603,0.00026,401.767,0.038,0.6421,0.0015,140.000,45.000,34264.60770,1.91836,404.934,33.249,45.068,45.000,0.00,0.10,-272.72,-272.78,-7,985,-5,23.9,16.5,-3.1,23.6,17.0,-2.9,5.73,1.93,-4.0,27.7
2015-05-31 00:39:00,0.0,1.90582,0.00033,401.762,0.034,0.6476,0.0023,139.999,45.000,34268.19882,1.91819,404.950,33.250,45.068,45.000,0.00,0.09,-272.73,-272.79,-7,984,-5,23.9,16.6,-3.0,23.6,17.0,-2.8,5.73,1.93,-4.0,27.7
2015-05-31 00:40:00,0.0,1.90663,0.00054,401.759,0.031,0.6499,0.0028,140.006,45.000,34274.24218,1.91897,404.963,33.250,45.068,45.000,0.00,0.10,-272.72,-272.78,-7,985,-5,23.9,16.7,-2.9,23.6,17.1,-2.8,5.73,1.93,-4.0,27.7
2015-05-31 00:41:00,0.0,1.90717,0.00048,401.751,0.050,0.6599,0.0039,140.003,45.000,34274.74611,1.91982,405.005,33.250,45.068,45.000,0.00,0.10,-272.71,-272.78,-7,985,-5,23.9,17.0,-2.7,23.6,17.3,-2.6,5.73,1.93,-4.0,27.8
2015-05-31 00:42:00,0.0,1.90683,0.00034,401.741,0.043,0.6629,0.0023,140.000,45.000,34275.69012,1.91959,405.011,33.249,45.068,45.000,0.00,0.09,-272.72,-272.78,-6,985,-5,23.9,17.0,-2.6,23.7,17.5,-2.5,5.73,1.93,-3.9,27.7
2015-05-31 00:43:00,0.0,1.90622,0.00025,401.691,0.024,0.6703,0.0021,139.998,45.000,34277.45922,1.91910,404.997,33.250,45.068,45.000,0.00,0.09,-272.72,-272.78,-7,985,-5,23.9,17.2,-2.5,23.7,17.7,-2.3,5.73,1.92,-4.0,27.7
2015-05-31 00:44:00,0.0,1.90663,0.00034,401.713,0.034,0.6695,0.0021,139.995,45.000,34279.73718,1.91942,405.014,33.262,45.068,45.000,0.00,0.10,-272.71,-272.77,-6,985,-5,24.0,17.2,-2.5,23.7,17.6,-2.3,5.73,1.93,-4.0,27.7
2015-05-31 00:45:00,0.0,1.90720,0.00040,401.747,0.045,0.6700,0.0029,139.996,45.000,34280.06601,1.91996,405.051,33.277,45.068,45.000,0.00,0.10,-272.72,-272.78,-7,985,-5,23.9,17.2,-2.5,23.7,17.7,-2.3,5.73,1.93,-3.9,27.7
2015-05-31 00:46:00,0.0,1.90773,0.00030,401.754,0.034,0.6713,0.0043,139.997,45.000,34280.71546,1.92058,405.065,33.304,45.068,45.000,0.00,0.10,-272.72,-272.79,-7,985,-5,23.9,17.2,-2.5,23.7,17.7,-2.3,5.73,1.93,-3.9,27.8
2015-05-31 00:47:00,0.0,1.90854,0.00039,401.847,0.031,0.6585,0.0025,139.998,45.000,34280.21841,1.92112,405.096,33.309,45.068,45.000,0.00,0.09,-272.72,-272.79,-7,985,-5,23.9,16.8,-2.8,23.7,17.4,-2.5,5.73,1.94,-3.9,27.8
2015-05-31 00:48:00,0.0,1.90864,0.00036,401.849,0.021,0.6544,0.0016,140.002,45.000,34281.60282,1.92118,405.077,33.311,45.067,45.000,0.00,0.10,-272.71,-272.78,-7,985,-5,23.9,16.7,-2.8,23.7,17.2,-2.7,5.73,1.94,-3.9,27.8
2015-05-31 00:49:00,0.0,1.90820,0.00034,401.796,0.028,0.6646,0.0025,140.004,45.000,34283.29652,1.92098,405.073,33.313,45.067,45.000,0.00,0.10,-272.72,-272.79,-7,985,-5,23.9,17.0,-2.6,23.7,17.4,-2.5,5.73,1.94,-3.9,27.8
2015-05-31 00:50:00,0.0,1.90844,0.00027,401.780,0.045,0.6739,0.0037,139.998,45.000,34282.21268,1.92131,405.102,33.314,45.067,45.000,0.00,0.09,-272.72,-272.79,-7,985,-5,24.0,17.3,-2.4,23.6,17.7,-2.3,5.73,1.95,-3.9,27.8
2015-05-31 00:51:00,0.0,1.90869,0.00047,401.820,0.050,0.6699,0.0026,139.997,45.000,34282.65815,1.92151,405.128,33.313,45.068,45.000,0.00,0.10,-272.72,-272.77,-7,985,-5,23.9,17.2,-2.5,23.7,17.7,-2.3,5.73,1.95,-3.9,27.8
2015-05-31 00:52:00,0.0,1.90901,0.00022,401.835,0.035,0.6699,0.0023,139.996,45.000,34283.62481,1.92188,405.140,33.313,45.068,45.000,0.00,0.10,-272.72,-272.78,-7,985,-5,24.0,17.2,-2.5,23.7,17.6,-2.4,5.73,1.95,-3.9,27.7
2015-05-31 00:53:00,0.0,1.90877,0.00032,401.801,0.028,0.6711,0.0022,139.997,45.000,34287.01493,1.92167,405.115,33.313,45.068,45.000,0.00,0.10,-272.72,-272.79,-7,985,-5,24.0,17.1,-2.5,23.6,17.6,-2.4,5.73,1.95,-3.9,27.7
2015-05-31 00:54:00,0.0,1.90844,0.00036,401.768,0.026,0.6730,0.0014,140.001,45.000,34288.39594,1.92134,405.087,33.313,45.068,45.000,0.00,0.10,-272.72,-272.78,-7,985,-5,24.0,17.2,-2.4,23.7,17.7,-2.2,5.73,1.95,-3.9,27.7
2015-05-31 00:55:00,0.0,1.90853,0.00037,401.796,0.034,0.6667,0.0040,140.000,45.000,34290.18146,1.92131,405.085,33.313,45.068,45.000,0.00,0.10,-272.72,-272.77,-6,985,-5,24.0,17.0,-2.6,23.7,17.6,-2.4,5.73,1.96,-3.9,27.8
2015-05-31 00:56:00,0.0,1.90879,0.00035,401.843,0.031,0.6598,0.0019,140.002,45.000,34290.04872,1.92145,405.097,33.317,45.068,45.000,0.00,0.10,-272.72,-272.78,-7,986,-5,24.0,16.8,-2.7,23.7,17.3,-2.5,5.73,1.95,-3.9,27.8
2015-05-31 00:57:00,0.0,1.90871,0.00020,401.831,0.025,0.6616,0.0017,139.997,45.000,34289.31456,1.92137,405.097,33.313,45.068,45.000,0.00,0.10,-272.72,-272.78,-7,985,-5,23.9,16.8,-2.8,23.7,17.3,-2.6,5.73,1.95,-3.9,27.7
2015-05-31 00:58:00,0.0,1.90871,0.00022,401.844,0.023,0.6566,0.0017,139.997,45.000,34289.61949,1.92132,405.083,33.311,45.068,45.000,0.00,0.09,-272.71,-272.78,-7,985,-5,23.9,16.8,-2.8,23.7,17.2,-2.6,5.73,1.95,-3.9,27.7
2015-05-31 00:59:00,0.0,1.90880,0.00037,401.850,0.027,0.6583,0.0017,139.997,45.000,34288.66709,1.92140,405.098,33.314,45.068,45.000,0.00,0.09,-272.72,-272.78,-7,985,-5,24.0,16.8,-2.8,23.7,17.3,-2.6,5.73,1.94,-3.9,27.7
2015-05-31 01:00:00,0.0,1.90908,0.00034,401.840,0.025,0.6620,0.0017,139.999,45.000,34288.70351,1.92176,405.105,33.318,45.068,45.000,0.00,0.10,-272.72,-272.78,-7,985,-5,24.0,16.9,-2.7,23.7,17.4,-2.5,5.73,1.95,-3.9,27.7
2015-05-31 01:01:00,0.0,1.90847,0.00037,401.865,0.033,0.6598,0.0023,139.998,45.000,34291.03295,1.92117,405.122,33.327,45.068,45.000,0.00,0.10,-272.72,-272.78,-7,985,-5,24.0,16.8,-2.7,23.7,17.4,-2.5,5.73,1.93,-3.9,27.7
2015-05-31 01:02:00,0.0,1.90885,0.00028,401.823,0.025,0.6649,0.0018,140.001,45.000,34289.27134,1.92157,405.102,33.324,45.068,45.000,0.00,0.10,-272.72,-272.78,-7,985,-5,24.0,17.0,-2.6,23.7,17.4,-2.5,5.73,1.93,-3.9,27.7
2015-05-31 01:03:00,0.0,1.90835,0.00021,401.809,0.024,0.6639,0.0018,139.998,45.000,34288.73706,1.92110,405.083,33.329,45.068,45.000,0.00,0.10,-272.73,-272.79,-7,985,-5,24.0,16.9,-2.7,23.7,17.4,-2.5,5.73,1.93,-3.9,27.8
2015-05-31 01:04:00,0.0,1.90834,0.00043,401.785,0.029,0.6656,0.0023,139.998,45.000,34291.10089,1.92106,405.070,33.357,45.068,45.000,0.00,0.10,-272.72,-272.78,-7,985,-5,24.0,17.0,-2.6,23.7,17.5,-2.4,5.73,1.93,-3.9,27.8
2015-05-31 01:05:00,0.0,1.90848,0.00036,401.827,0.025,0.6634,0.0026,140.001,45.000,34293.26211,1.92123,405.099,33.356,45.068,45.000,0.00,0.10,-272.71,-272.77,-7,986,-5,24.0,16.9,-2.7,23.7,17.4,-2.5,5.73,1.92,-3.9,27.8
2015-05-31 01:06:00,0.0,1.90888,0.00028,401.862,0.025,0.6550,0.0019,139.999,45.000,34287.83050,1.92141,405.092,33.352,45.068,45.000,0.00,0.09,-272.73,-272.78,-7,985,-5,24.0,16.7,-2.8,23.7,17.2,-2.7,5.73,1.93,-3.9,27.8
2015-05-31 01:07:00,0.0,1.90868,0.00043,401.848,0.032,0.6554,0.0017,140.003,45.000,34290.15315,1.92124,405.080,33.322,45.068,45.000,0.00,0.10,-272.72,-272.77,-7,985,-5,24.0,16.7,-2.8,23.7,17.1,-2.7,5.73,1.92,-3.9,27.8
2015-05-31 01:08:00,0.0,1.90851,0.00026,401.818,0.040,0.6591,0.0024,139.997,45.000,34291.01125,1.92117,405.071,33.321,45.068,45.000,0.00,0.10,-272.72,-272.77,-7,985,-5,24.0,16.8,-2.7,23.8,17.2,-2.6,5.73,1.93,-3.9,27.8
2015-05-31 01:09:00,0.0,1.90853,0.00038,401.826,0.034,0.6620,0.0021,139.998,45.000,34290.84113,1.92122,405.090,33.325,45.068,45.000,0.00,0.10,-272.72,-272.78,-7,985,-5,24.0,16.8,-2.7,23.7,17.3,-2.6,5.73,1.92,-3.9,27.8
2015-05-31 01:10:00,0.0,1.90826,0.00041,401.822,0.022,0.6643,0.0025,140.004,45.000,34293.31405,1.92098,405.098,33.333,45.068,45.000,0.00,0.09,-272.72,-272.78,-7,985,-5,24.0,16.9,-2.6,23.7,17.4,-2.5,5.73,1.94,-3.9,27.8
2015-05-31 01:11:00,0.0,1.90842,0.00026,401.825,0.033,0.6674,0.0022,140.000,45.000,34291.98745,1.92123,405.118,33.325,45.068,45.000,0.00,0.10,-272.71,-272.78,-7,985,-5,24.0,17.0,-2.6,23.7,17.4,-2.5,5.73,1.94,-3.9,27.7
2015-05-31 01:12:00,0.0,1.90849,0.00022,401.789,0.031,0.6723,0.0020,139.998,45.000,34292.01331,1.92139,405.105,33.340,45.068,45.000,0.00,0.10,-272.71,-272.79,-7,985,-5,24.0,17.1,-2.5,23.7,17.6,-2.3,5.73,1.94,-3.9,27.8
2015-05-31 01:13:00,0.0,1.90846,0.00036,401.803,0.025,0.6684,0.0022,140.002,45.000,34293.88775,1.92129,405.102,33.362,45.068,45.000,0.00,0.09,-272.72,-272.79,-7,985,-5,24.0,17.0,-2.6,23.7,17.5,-2.4,5.73,1.95,-3.9,27.8
2015-05-31 01:14:00,0.0,1.90831,0.00034,401.778,0.030,0.6740,0.0027,139.997,45.000,34291.01387,1.92120,405.104,33.351,45.068,45.000,0.00,0.10,-272.71,-272.78,-7,985,-5,24.0,17.2,-2.4,23.8,17.6,-2.3,5.73,1.95,-3.9,27.8
2015-05-31 01:15:00,0.0,1.90841,0.00037,401.750,0.030,0.6689,0.0050,140.001,45.000,34294.29096,1.92129,405.051,33.370,45.068,45.000,0.00,0.10,-272.72,-272.77,-6,985,-5,24.0,17.1,-2.5,23.7,17.6,-2.3,5.73,1.96,-3.9,27.8
2015-05-31 01:16:00,0.0,1.90858,0.00049,401.795,0.022,0.6675,0.0025,140.000,45.000,34294.61497,1.92131,405.086,33.370,45.067,45.000,0.00,0.09,-272.72,-272.79,-7,985,-5,24.0,17.0,-2.6,23.7,17.4,-2.4,5.73,1.95,-3.9,27.8
2015-05-31 01:17:00,0.0,1.90862,0.00033,401.741,0.037,0.6782,0.0027,140.001,45.000,34295.22940,1.92164,405.087,33.365,45.067,45.000,0.00,0.10,-272.73,-272.78,-7,985,-5,24.0,17.2,-2.4,23.7,17.7,-2.3,5.73,1.96,-3.9,27.8
2015-05-31 01:18:00,0.0,1.90842,0.00033,401.696,0.028,0.6832,0.0031,139.999,45.000,34294.87471,1.92155,405.069,33.372,45.068,45.000,0.00,0.10,-272.72,-272.78,-7,985,-5,24.0,17.4,-2.2,23.7,17.9,-2.1,5.73,1.95,-3.9,27.8
2015-05-31 01:19:00,0.0,1.90837,0.00031,401.777,0.054,0.6715,0.0041,140.001,45.000,34295.29741,1.92122,405.088,33.373,45.067,45.000,0.00,0.10,-272.72,-272.78,-6,985,-5,24.0,17.1,-2.5,23.7,17.6,-2.3,5.73,1.95,-3.9,27.8
2015-05-31 01:20:00,0.0,1.90884,0.00029,401.798,0.034,0.6660,0.0013,139.996,45.000,34293.17657,1.92159,405.085,33.377,45.068,45.000,0.00,0.09,-272.72,-272.78,-7,985,-5,24.0,16.9,-2.6,23.8,17.4,-2.4,5.73,1.94,-3.9,27.8
2015-05-31 01:21:00,0.0,1.90893,0.00035,401.825,0.035,0.6594,0.0019,139.999,45.000,34294.66601,1.92160,405.079,33.374,45.068,45.000,0.00,0.10,-272.72,-272.77,-7,985,-5,24.0,16.7,-2.8,23.7,17.2,-2.6,5.73,1.94,-3.9,27.8
2015-05-31 01:22:00,0.0,1.90874,0.00043,401.845,0.027,0.6617,0.0028,140.001,45.000,34294.35177,1.92141,405.109,33.375,45.068,45.000,0.00,0.10,-272.72,-272.77,-7,986,-5,24.0,16.8,-2.7,23.7,17.3,-2.6,5.73,1.93,-3.9,27.8
2015-05-31 01:23:00,0.0,1.90863,0.00028,401.837,0.026,0.6584,0.0028,140.000,45.000,34295.21173,1.92129,405.088,33.375,45.068,45.000,0.00,0.09,-272.73,-272.78,-7,985,-5,24.0,16.7,-2.8,23.8,17.2,-2.6,5.73,1.93,-3.9,27.8
2015-05-31 01:24:00,0.0,1.90865,0.00032,401.862,0.033,0.6552,0.0010,140.001,45.000,34296.45204,1.92117,405.091,33.375,45.068,45.000,0.00,0.09,-272.72,-272.78,-7,986,-5,24.0,16.6,-2.9,23.7,17.1,-2.7,5.73,1.93,-3.9,27.8
2015-05-31 01:25:00,0.0,1.90901,0.00039,401.866,0.043,0.6555,0.0020,140.000,45.000,34294.93516,1.92157,405.100,33.373,45.068,45.000,0.00,0.10,-272.71,-272.78,-7,985,-5,24.0,16.7,-2.8,23.7,17.1,-2.7,5.73,1.92,-3.9,27.8
2015-05-31 01:26:00,0.0,1.90895,0.00032,401.875,0.023,0.6506,0.0019,140.000,45.000,34293.96296,1.92144,405.084,33.375,45.068,45.000,0.00,0.10,-272.72,-272.78,-7,986,-5,24.0,16.5,-2.9,23.8,17.0,-2.8,5.73,1.92,-3.9,27.7
2015-05-31 01:27:00,0.0,1.90925,0.00030,401.868,0.028,0.6487,0.0016,140.002,45.000,34293.57794,1.92167,405.067,33.373,45.068,45.000,0.00,0.09,-272.72,-272.78,-7,985,-5,24.0,16.4,-3.0,23.7,16.9,-2.8,5.73,1.92,-3.9,27.8
2015-05-31 01:28:00,0.0,1.90943,0.00043,401.898,0.020,0.6472,0.0020,140.000,45.000,34291.44076,1.92181,405.090,33.374,45.068,45.000,0.00,0.10,-272.71,-272.78,-7,985,-5,24.0,16.4,-3.0,23.7,16.9,-2.9,5.73,1.92,-3.8,27.8
2015-05-31 01:29:00,0.0,1.90939,0.00036,401.886,0.033,0.6511,0.0021,140.000,45.000,34292.28525,1.92188,405.097,33.375,45.068,45.000,0.00,0.10,-272.72,-272.78,-7,986,-5,24.0,16.5,-2.9,23.8,17.0,-2.8,5.73,1.93,-3.9,27.8
2015-05-31 01:30:00,0.0,1.90913,0.00034,401.875,0.021,0.6573,0.0028,140.005,45.000,34293.93865,1.92174,405.114,33.376,45.068,45.000,0.00,0.10,-272.73,-272.78,-7,986,-5,24.0,16.7,-2.8,23.8,17.1,-2.7,5.73,1.93,-3.8,27.8
2015-05-31 01:31:00,0.0,1.90898,0.00033,401.823,0.031,0.6636,0.0023,139.997,45.000,34292.08460,1.92169,405.099,33.380,45.068,45.000,0.00,0.10,-272.72,-272.78,-7,986,-5,24.0,16.9,-2.6,23.7,17.2,-2.6,5.73,1.93,-3.8,27.8
2015-05-31 01:32:00,0.0,1.90906,0.00034,401.815,0.023,0.6669,0.0021,140.003,45.000,34293.77725,1.92186,405.103,33.391,45.068,45.000,0.00,0.10,-272.72,-272.78,-7,985,-5,24.0,17.0,-2.6,23.8,17.4,-2.5,5.73,1.94,-3.8,27.8
2015-05-31 01:33:00,0.0,1.90887,0.00039,401.785,0.033,0.6724,0.0032,140.001,45.000,34293.63078,1.92182,405.101,33.380,45.068,45.000,0.00,0.09,-272.72,-272.79,-7,986,-5,24.1,17.1,-2.4,23.8,17.5,-2.3,5.73,1.94,-3.8,27.8
2015-05-31 01:34:00,0.0,1.90877,0.00028,401.804,0.028,0.6728,0.0023,140.001,45.000,34295.00501,1.92166,405.127,33.385,45.068,45.000,0.00,0.09,-272.72,-272.78,-7,985,-5,24.0,17.1,-2.4,23.8,17.6,-2.3,5.73,1.95,-3.8,27.8
2015-05-31 01:35:00,0.0,1.90897,0.00040,401.804,0.041,0.6721,0.0025,139.999,45.000,34293.86916,1.92188,405.120,33.388,45.068,45.000,0.00,0.10,-272.72,-272.77,-7,986,-5,24.1,17.1,-2.5,23.8,17.5,-2.3,5.73,1.95,-3.8,27.8
2015-05-31 01:36:00,0.0,1.90889,0.00040,401.745,0.028,0.6814,0.0042,139.999,45.000,34293.50683,1.92195,405.107,33.387,45.068,45.000,0.00,0.10,-272.72,-272.78,-7,986,-5,24.0,17.4,-2.3,23.8,17.8,-2.2,5.73,1.95,-3.8,27.8
2015-05-31 01:37:00,0.0,1.90853,0.00039,401.691,0.039,0.6874,0.0021,140.000,45.000,34294.82117,1.92171,405.082,33.405,45.068,45.000,0.00,0.09,-272.73,-272.78,-7,986,-5,24.1,17.5,-2.1,23.8,17.9,-2.0,5.73,1.95,-3.8,27.8
2015-05-31 01:38:00,0.0,1.90848,0.00028,401.724,0.019,0.6857,0.0018,140.002,45.000,34295.28731,1.92163,405.108,33.405,45.068,45.000,0.00,0.10,-272.72,-272.77,-7,986,-5,24.0,17.5,-2.2,23.8,17.9,-2.0,5.73,1.95,-3.8,27.7
2015-05-31 01:39:00,0.0,1.90876,0.00043,401.745,0.039,0.6789,0.0050,140.000,45.000,34293.78071,1.92181,405.099,33.384,45.068,45.000,0.00,0.10,-272.72,-272.78,-7,985,-5,24.0,17.3,-2.3,23.8,17.8,-2.1,5.73,1.95,-3.8,27.8
2015-05-31 01:40:00,0.0,1.90870,0.00027,401.796,0.036,0.6697,0.0017,140.000,45.000,34295.58045,1.92153,405.100,33.377,45.068,45.000,0.00,0.10,-272.72,-272.79,-7,986,-5,24.0,17.0,-2.5,23.8,17.5,-2.3,5.73,1.95,-3.8,27.8
2015-05-31 01:41:00,0.0,1.90850,0.00030,401.768,0.029,0.6682,0.0025,140.002,45.000,34297.96707,1.92132,405.063,33.385,45.068,45.000,0.00,0.10,-272.71,-272.78,-6,985,-5,24.0,17.0,-2.6,23.8,17.4,-2.4,5.73,1.94,-3.8,27.7
2015-05-31 01:42:00,0.0,1.90872,0.00030,401.787,0.023,0.6680,0.0030,139.999,45.000,34294.58357,1.92153,405.082,33.380,45.068,45.000,0.00,0.10,-272.71,-272.78,-7,986,-5,24.0,17.0,-2.6,23.8,17.4,-2.4,5.73,1.94,-3.8,27.8
2015-05-31 01:43:00,0.0,1.90835,0.00046,401.779,0.028,0.6727,0.0024,139.998,45.000,34294.62471,1.92128,405.099,33.384,45.068,45.000,0.00,0.09,-272.72,-272.79,-7,985,-5,24.0,17.1,-2.5,23.8,17.5,-2.4,5.73,1.94,-3.8,27.7
2015-05-31 01:44:00,0.0,1.90847,0.00031,401.768,0.029,0.6731,0.0019,139.999,45.000,34295.01800,1.92133,405.088,33.382,45.067,45.000,0.00,0.10,-272.72,-272.78,-7,986,-5,24.0,17.1,-2.4,23.8,17.6,-2.3,5.73,1.93,-3.8,27.8
2015-05-31 01:45:00,0.0,1.90828,0.00027,401.757,0.025,0.6755,0.0019,139.999,45.000,34293.82161,1.92126,405.090,33.378,45.068,45.000,0.00,0.10,-272.71,-272.77,-7,986,-5,24.0,17.2,-2.4,23.8,17.6,-2.2,5.73,1.93,-3.8,27.8
2015-05-31 01:46:00,0.0,1.90805,0.00024,401.754,0.021,0.6734,0.0012,139.999,45.000,34296.03359,1.92099,405.079,33.386,45.068,45.000,0.00,0.10,-272.72,-272.78,-7,986,-5,24.0,17.1,-2.5,23.8,17.5,-2.3,5.73,1.93,-3.8,27.8